Regional Weather Roundup
Issued by NWS

Home | Current Version | Previous Version | Text Only | Print | Product List | Glossary Off
Versions: 1 2 3 4 5 6 7 8 9 10 11 12 13 14 15 16 17 18 19 20 21 22 23 24 25 26 27 28 29 30 31 32 33 34 35 36 37 38 39 40 41 42 43 44 45 46 47 48 49 50

000
ASUS43 KLOT 280906
RWRIL

ILLINOIS REGIONAL WEATHER ROUNDUP
NATIONAL WEATHER SERVICE CHICAGO/ROMEOVILLE IL
400 AM CDT MON JUL 28 2014

NOTE: "FAIR" INDICATES FEW OR NO CLOUDS BELOW 12,000 FEET WITH NO
SIGNIFICANT WEATHER AND/OR OBSTRUCTIONS TO VISIBILITY.

* THESE STATIONS ARE NOT UNDER NWS QUALITY CONTROL. THEY ALSO MAY NOT
  REPORT WEATHER SUCH AS PRECIPITATION OR FOG.

ILZ001-002-007-009-015-016-024-281000-
NORTHWEST ILLINOIS

CITY           SKY/WX    TMP DP  RH WIND       PRES   REMARKS
MOLINE         CLOUDY    66  59  78 N10G17    30.03R
STERLING*      CLEAR     61  54  77 N8G16     30.03R
SAVANNA*       CLEAR     62  53  74 N7        30.04R
$$

ILZ003-004-008-010-011-017-018-281000-
NORTH CENTRAL ILLINOIS

CITY           SKY/WX    TMP DP  RH WIND       PRES   REMARKS
ROCKFORD       CLEAR     60  52  74 N12       30.03R
FREEPORT*      CLEAR     56  54  92 NW9       30.05S
ROCHELLE*      CLEAR     58  53  82 N9        30.02R
DE KALB*       CLEAR     57  52  83 NW9       30.00R
PERU*          CLEAR     60  56  86 N8        30.01R
$$

ILZ005-006-012>014-019>023-281000-
NORTHEAST ILLINOIS

CITY           SKY/WX    TMP DP  RH WIND       PRES   REMARKS
CHICAGO-OHARE  CLEAR     62  49  62 N12       29.95R
CHICAGO-MIDWAY PTCLDY    64  53  67 NW10      29.94R
AURORA         CLEAR     58  54  86 NW7       29.98R
LANSING*       CLOUDY    64  51  62 N13G21    29.94R
JOLIET*        CLEAR     61  51  69 N7        29.97R
WAUKEGAN       CLEAR     57  51  80 NW6       29.95S
DUPAGE AIRPORT CLEAR     60  51  72 N12       29.96R
KANKAKEE*      CLEAR     61  54  78 CALM      29.95R
WHEELING       CLEAR     61  51  70 NW9       29.96R
MORRIS*        CLEAR     60  54  81 CALM      29.97R
ROMEOVILLE*    CLEAR     61  51  70 N9        29.96S
NORTHERLY ISL    N/A     63  51  65 NW22        N/A
$$

LMZ740>746-281000-
SOUTHERN LAKE MICHIGAN

STATION/POSITION SKY/WX   TEMP    WIND        PRES    VSBY  WAVE
                          AIR SEA DIR/SP/G                  HT/PER
                          (F)     (DEG/KT/KT) (MB)    (MI)  (FT/S)
SOUTHERN BUOY              59 59  340/ 23/ 29 1012.3R         7/ 7
WAUKEGAN HARBOR            60     330/  9/ 17   N/A
HARRISON CRIB              63     350/ 29/ 34   N/A
BURNHAM HARBOR             63     340/ 14/ 23   N/A
CALUMET HARBOR             63     330/ 16/ 23 1012.4S
MICHIGAN CITY              62     330/ 29/ 32   N/A
MICHIGAN CITY 6N           63 68  360/ 19/ 27   N/A          11/ 8
ST. JOSEPH                 61 65  350/ 19/ 25   N/A          10/ 7
$$

ILZ025>027-034>036-040-047-049-050-058-095>099-281000-
WEST-CENTRAL ILLINOIS

CITY           SKY/WX    TMP DP  RH WIND       PRES   REMARKS
QUINCY         CLEAR     63  58  83 NW9       30.04R
GALESBURG*     CLEAR     61  60  95 N7        30.03R
MACOMB*        CLEAR     62  60  96 NW7       30.05R
JACKSONVILLE*  CLEAR     64  61  91 NW7       30.02R
PITTSFIELD*    CLEAR     64  59  82 NW7       30.04R
$$

ILZ028>032-037-038-041>044-048-051>054-059>061-281000-
CENTRAL ILLINOIS

CITY           SKY/WX    TMP DP  RH WIND       PRES   REMARKS
PONTIAC        PTCLDY    63  57  82 N7        29.98R
DECATUR        CLEAR     65  60  84 N10       29.97R
PEORIA         CLOUDY    65  59  81 N6        30.00R
LACON*         CLEAR     62  58  85 N7        29.99R
LINCOLN*       PTCLDY    63  60  91 NW3       29.97R
SPRINGFIELD    CLEAR     65  61  87 NW9       29.99R
TAYLORVILLE    CLEAR     61  59  94 NW8       29.98S
$$

ILZ033-039-045-046-055>057-062-063-281000-
EAST-CENTRAL ILLINOIS

CITY           SKY/WX    TMP DP  RH WIND       PRES   REMARKS
CHAMPAIGN      CLEAR     63  60  90 N9        29.96R
DANVILLE*      CLEAR     60  57  89 N8        29.91R
RANTOUL*       PTCLDY    64  57  77 N10       29.96S
MATTOON        PTCLDY    62  59  90 NW12      29.94R
PARIS*         CLEAR     61  60  96 NW5       29.94R
$$

ILZ079-100>102-281000-
SOUTHWEST ILLINOIS

CITY           SKY/WX    TMP DP  RH WIND       PRES   REMARKS
ALTON          CLEAR     66  62  85 NW10      30.00R
BELLEVILLE     CLEAR     65  60  82 W8        29.99R
CAHOKIA*       CLEAR     70  59  68 NW12      30.01R
SPARTA*        CLEAR     64  59  82 NW5       30.00S
$$

ILZ064>066-069>071-074>076-080>082-084>086-088>090-092>094-281000-
SOUTH-CENTRAL ILLINOIS

CITY           SKY/WX    TMP DP  RH WIND       PRES   REMARKS
CARBONDALE     CLEAR     65  57  75 W5        29.99R
CAIRO*         CLEAR     67  59  75 NW3       30.00R
EFFINGHAM*     CLEAR     64  56  75 NW9       29.96R
MARION         CLEAR     66  59  77 CALM      29.99R
MT. VERNON     CLEAR     66  55  68 NW3       29.98R
CENTRALIA*     CLEAR     66  58  75 NW9       29.97S
SALEM*         CLEAR    N/A N/A N/A NW6       29.97R
METROPOLIS*    CLEAR     65  55  71 NW5       29.98S
$$

ILZ067-068-072-073-078-083-087-091-281000-
SOUTHEAST ILLINOIS

CITY           SKY/WX    TMP DP  RH WIND       PRES   REMARKS
LAWRENCEVILLE  CLEAR     64  60  87 NW12      29.93R
FLORA*         CLEAR     64  58  81 NW7       29.96R
FAIRFIELD*     CLEAR     66  61  82 CALM      29.95R
HARRISBURG*    CLEAR     63  60  89 W3        29.98S
ROBINSON*      CLEAR     64  61  89 W7        29.94R
CARMI*         CLEAR     64  63  94 W3        29.95R
$$

ABBREVIATIONS USED IN REMARKS
   TC - TEMPERATURE IN CELSIUS
  WCI - WIND CHILL INDEX
   HX - HEAT INDEX
  VSB - VISIBILITY
$$




USA.gov is the U.S. government's official web portal to all federal, state and local government web resources and services.